Location: Burla
(50.9568°N, 10.4983°E)
Time: 17:15:14
(UTC+00:00)

CZ-2D R/B - Pass Details

Date: 18 January 2026
Orbit: 388 x 398 km, 97.4° (Epoch: 16 February)

Event Time Altitude Azimuth Distance (km) Brightness Sun altitude
Rises 05:49:25 0° 17° (NNE) 2,333 6.5 -12.6°
Reaches altitude 10° 05:51:27 10° 22° (NNE) 1,463 5.6 -12.3°
Maximum altitude 05:54:31 53° 100° (E) 497 3.5 -11.8°
Drops below altitude 10° 05:57:32 10° 180° (S) 1,436 5.7 -11.4°
Sets 05:59:30 0° 185° (S) 2,284 6.7 -11.1°
